EW9034 Weather Reports


Display with metric or nautical units.
time (UTC)temp
F
wind
direction
speed
MPH
gust
MPH
rain 1hr
in
rain 24hr
in
rain mn
in
humidity
%
barometer
mb
20260906223035 60 59 3.0 9.0 0.00 0.59 0.59 91 1013.6
20260906221629 60 66 2.0 10.0 0.00 0.59 0.59 92 1013.6
20260906220044 60 63 6.0 10.0 0.00 0.59 0.59 91 1013.4
20260906214506 60 81 4.0 10.0 0.00 0.59 0.59 92 1013.7
20260906213104 60 70 6.0 12.0 0.00 0.59 0.59 93 1013.7
20260906211510 59 75 7.0 14.0 0.00 0.59 0.59 94 1013.9
20260906210052 59 53 8.0 12.0 0.00 0.59 0.59 94 1013.9
20260906204510 59 46 7.0 12.0 0.00 0.59 0.59 95 1014.1
20260906203054 58 48 9.0 14.0 0.00 0.59 0.59 96 1014.0
20260906201505 59 44 6.0 11.0 0.00 0.59 0.59 96 1014.0
20260906200052 58 40 7.0 13.0 0.00 0.59 0.59 96 1014.2
20260906194630 58 43 6.0 12.0 0.00 0.59 0.59 96 1014.4
20260906193052 58 32 7.0 12.0 0.02 0.59 0.59 96 1014.5
20260906191629 58 39 7.0 12.0 0.12 0.59 0.59 96 1014.4
20260906190050 58 16 4.0 9.0 0.24 0.59 0.59 96 1014.7
20260906184628 58 9 5.0 10.0 0.24 0.63 0.59 96 1015.1
20260906183108 58 38 5.0 10.0 0.23 0.61 0.56 96 1015.0
20260906181632 57 275 2.0 17.0 0.13 0.51 0.47 96 1015.6
20260906180114 57 18 1.0 8.0 0.01 0.39 0.35 96 1015.4
20260906174616 57 5 4.0 9.0 0.01 0.39 0.35 96 1015.1
20260906173030 57 360 7.0 11.0 0.00 0.38 0.34 96 1015.9
20260906171621 57 345 4.0 9.0 0.03 0.38 0.34 96 1016.4
20260906170042 57 355 1.0 8.0 0.10 0.38 0.34 96 1016.7
20260906164516 56 341 4.0 11.0 0.11 0.39 0.34 96 1016.3
20260906163110 56 355 5.0 14.0 0.11 0.39 0.34 96 1015.9
20260906161512 57 332 6.0 12.0 0.07 0.35 0.30 95 1016.7
20260906160058 57 5 1.0 4.0 0.01 0.28 0.24 96 1017.1
20260906154631 57 5 2.0 6.0 0.00 0.32 0.23 96 1016.9
20260906153039 57 5 1.0 6.0 0.00 0.32 0.23 96 1016.7
20260906151628 57 13 4.0 8.0 0.00 0.32 0.23 96 1016.3
20260906150055 57 13 5.0 9.0 0.00 0.32 0.23 96 1016.4
20260906144505 57 5 5.0 10.0 0.00 0.34 0.23 96 1016.4
20260906143056 56 5 6.0 12.0 0.00 0.34 0.23 96 1016.2
20260906141633 57 343 4.0 10.0 0.00 0.34 0.23 96 1016.5
20260906140055 56 322 7.0 10.0 0.00 0.34 0.23 96 1016.7
20260906134617 56 308 5.0 11.0 0.00 0.34 0.23 96 1016.8
20260906133040 56 101 1.0 4.0 0.00 0.34 0.23 96 1016.3
20260906131635 56 101 0.0 3.0 0.00 0.34 0.23 96 1016.5
20260906130059 56 101 2.0 11.0 0.00 0.34 0.23 96 1016.7
20260906124535 56 97 8.0 12.0 0.00 0.34 0.23 96 1016.3
20260906123125 56 83 5.0 11.0 0.00 0.34 0.23 95 1016.3
20260906121543 56 50 3.0 9.0 0.00 0.34 0.23 95 1016.5
20260906120003 55 40 3.0 8.0 0.00 0.34 0.23 96 1016.5
20260906114555 55 32 2.0 8.0 0.01 0.34 0.23 95 1016.8
20260906113008 55 25 5.0 9.0 0.01 0.34 0.23 95 1017.1
20260906111554 55 237 1.0 4.0 0.01 0.34 0.23 95 1017.5
20260906110004 55 237 1.0 3.0 0.01 0.34 0.23 95 1018.1
20260906104555 55 237 1.0 4.0 0.00 0.33 0.22 95 1018.3
20260906103017 55 237 0.0 2.0 0.00 0.33 0.22 95 1018.7
20260906101610 55 237 1.0 3.0 0.00 0.33 0.22 95 1018.5
20260906100038 55 237 1.0 3.0 0.00 0.33 0.22 95 1018.5
20260906094629 55 237 0.0 1.0 0.02 0.33 0.22 95 1018.9
20260906093049 55 237 0.0 3.0 0.02 0.33 0.22 95 1018.8
20260906091523 55 237 1.0 5.0 0.02 0.33 0.22 95 1018.5
20260906090106 56 236 0.0 3.0 0.04 0.33 0.22 94 1018.5
20260906084526 56 236 0.0 4.0 0.06 0.31 0.20 94 1018.9
20260906083116 56 235 5.0 7.0 0.07 0.31 0.20 94 1018.5
20260906081550 56 211 3.0 6.0 0.08 0.31 0.20 94 1018.8
20260906080014 56 207 1.0 3.0 0.09 0.28 0.18 94 1019.0
20260906074616 56 207 3.0 9.0 0.10 0.25 0.14 94 1020.3
20260906073027 56 267 3.0 9.0 0.13 0.24 0.13 94 1020.0
20260906071624 56 323 2.0 13.0 0.12 0.23 0.12 93 1019.2
20260906070042 56 264 6.0 8.0 0.09 0.20 0.09 93 1019.2
20260906064541 56 196 6.0 13.0 0.03 0.14 0.03 93 1020.7
20260906063123 55 180 6.0 12.0 0.00 0.11 0.00 93 1019.9
20260906061538 55 360 2.0 5.0 0.00 0.11 0.00 93 1018.1
20260906060008 55 360 4.0 11.0 0.00 0.11 0.00 92 1017.5
20260906054615 55 325 0.0 5.0 0.00 0.11 0.11 92 1018.9
20260906053037 55 331 1.0 4.0 0.00 0.11 0.11 92 1019.5
20260906051627 54 333 0.0 3.0 0.00 0.11 0.11 91 1019.6
20260906050046 54 333 0.0 3.0 0.00 0.11 0.11 91 1019.1
20260906044625 55 333 0.0 2.0 0.00 0.11 0.11 91 1018.9
20260906043045 55 333 0.0 2.0 0.00 0.11 0.11 91 1018.5
20260906041633 54 333 0.0 1.0 0.00 0.11 0.11 90 1018.4
20260906040048 54 334 0.0 3.0 0.00 0.11 0.11 90 1018.2
20260906034615 53 333 1.0 3.0 0.00 0.11 0.11 88 1018.2
20260906033045 53 333 0.0 0.0 0.00 0.11 0.11 87 1018.3
20260906031629 54 333 0.0 0.0 0.00 0.11 0.11 86 1018.1
20260906030044 55 333 0.0 0.0 0.00 0.11 0.11 85 1018.0
20260906024612 56 333 0.0 0.0 0.00 0.11 0.11 83 1017.9
20260906023035 58 333 0.0 0.0 0.00 0.11 0.11 80 1017.7
20260906021633 60 333 0.0 0.0 0.00 0.11 0.11 78 1017.4
20260906014538 65 333 0.0 0.0 0.00 0.11 0.11 71 1017.2
20260906013119 67 333 0.0 0.0 0.00 0.11 0.11 68 1017.2
20260906011550 68 333 2.0 3.0 0.00 0.11 0.11 67 1017.2
20260906010003 68 333 0.0 3.0 0.00 0.11 0.11 68 1017.3
20260906004551 68 333 1.0 4.0 0.00 0.11 0.11 67 1017.3
20260906003006 69 333 0.0 1.0 0.00 0.11 0.11 68 1017.3
20260906001557 68 333 1.0 6.0 0.00 0.11 0.11 70 1017.4
20260906000015 67 333 1.0 4.0 0.00 0.11 0.11 72 1017.3
20260905234611 66 333 2.0 6.0 0.00 0.11 0.11 73 1017.4
20260905233031 67 325 2.0 6.0 0.00 0.11 0.11 72 1017.3
20260905231630 67 336 3.0 11.0 0.00 0.11 0.11 74 1017.3
20260905230050 66 309 3.0 8.0 0.00 0.11 0.11 76 1017.1
20260905224624 66 323 4.0 9.0 0.00 0.11 0.11 73 1017.2